UAL3225 KATL-KLAX

Flight info

Callsign UAL3225
Flight time N/A
Altitude 36000
Route NASSA2 YAALL J14 PNH ACH ABQ J78 DRK GABBL HLYWD1
Aircraft B77W/H-SDE1E2E3FGHIJ2J3J4J5M1RWXY/LB1D1

Departure

Time 2026-05-08 00:20
Airport Hartsfield Jackson Atlanta International Airport (KATL)

Arrival

Time N/A
Airport Los Angeles International Airport (KLAX)
Time Latitude Longitude Altitude Speed Heading
2026-05-07 23:57 33.64256 -84.44187 1040 ft 0 kts 270°
2026-05-08 00:08 33.64256 -84.44172 1040 ft 4 kts 269°
2026-05-08 00:08 33.64256 -84.44145 1040 ft 4 kts 281°
2026-05-08 00:08 33.64250 -84.44123 1040 ft 4 kts 320°
2026-05-08 00:08 33.64234 -84.44115 1040 ft 4 kts
2026-05-08 00:09 33.64215 -84.44116 1040 ft 0 kts
2026-05-08 00:10 33.64216 -84.44116 1040 ft 1 kts
2026-05-08 00:10 33.64254 -84.44116 1040 ft 6 kts
2026-05-08 00:10 33.64298 -84.44116 1040 ft 6 kts 359°
2026-05-08 00:11 33.64325 -84.44117 1040 ft 0 kts 359°
2026-05-08 00:11 33.64331 -84.44117 1040 ft 4 kts 359°
2026-05-08 00:11 33.64397 -84.44121 1040 ft 11 kts 357°
2026-05-08 00:12 33.64472 -84.44092 1040 ft 14 kts 39°
2026-05-08 00:12 33.64507 -84.43960 1040 ft 19 kts 82°
2026-05-08 00:12 33.64528 -84.43800 1040 ft 19 kts 81°
2026-05-08 00:12 33.64542 -84.43638 1040 ft 19 kts 89°
2026-05-08 00:13 33.64543 -84.43476 1041 ft 19 kts 90°
2026-05-08 00:13 33.64543 -84.43314 1041 ft 19 kts 90°
2026-05-08 00:13 33.64542 -84.43152 1041 ft 19 kts 90°
2026-05-08 00:13 33.64542 -84.42991 1040 ft 19 kts 90°
2026-05-08 00:14 33.64542 -84.42829 1040 ft 19 kts 90°
2026-05-08 00:14 33.64542 -84.42667 1040 ft 19 kts 90°
2026-05-08 00:14 33.64542 -84.42504 1040 ft 19 kts 90°
2026-05-08 00:14 33.64542 -84.42331 1039 ft 22 kts 90°
2026-05-08 00:15 33.64542 -84.42142 1040 ft 23 kts 89°
2026-05-08 00:15 33.64543 -84.41952 1040 ft 23 kts 90°
2026-05-08 00:15 33.64543 -84.41761 1040 ft 23 kts 90°
2026-05-08 00:15 33.64543 -84.41571 1041 ft 23 kts 90°
2026-05-08 00:16 33.64543 -84.41380 1041 ft 23 kts 90°
2026-05-08 00:16 33.64543 -84.41189 1041 ft 23 kts 90°
2026-05-08 00:16 33.64543 -84.40999 1040 ft 23 kts 90°
2026-05-08 00:16 33.64550 -84.40827 1040 ft 18 kts 75°
2026-05-08 00:17 33.64570 -84.40692 1039 ft 10 kts 89°
2026-05-08 00:17 33.64571 -84.40650 1039 ft 0 kts 89°
2026-05-08 00:18 33.64572 -84.40634 1039 ft 7 kts 84°
2026-05-08 00:18 33.64619 -84.40575 1038 ft 13 kts
2026-05-08 00:18 33.64663 -84.40574 1038 ft 6 kts 357°
2026-05-08 00:18 33.64681 -84.40600 1038 ft 4 kts 281°
2026-05-08 00:19 33.64680 -84.40667 1037 ft 17 kts 270°
2026-05-08 00:19 33.64679 -84.41045 1040 ft 82 kts 270°
2026-05-08 00:19 33.64679 -84.42018 1039 ft 150 kts 270°
2026-05-08 00:19 33.64680 -84.43473 1179 ft 186 kts 272°
2026-05-08 00:20 33.64672 -84.45034 1855 ft 191 kts 272°
2026-05-08 00:20 33.64729 -84.46583 2639 ft 184 kts 282°
2026-05-08 00:20 33.65017 -84.48145 2928 ft 203 kts 286°
2026-05-08 00:20 33.65374 -84.49883 3104 ft 227 kts 285°
2026-05-08 00:21 33.65757 -84.51802 3477 ft 242 kts 284°
2026-05-08 00:21 33.66137 -84.53767 4125 ft 247 kts 283°
2026-05-08 00:21 33.66523 -84.55785 4843 ft 250 kts 283°
2026-05-08 00:21 33.66910 -84.57822 5586 ft 249 kts 282°
2026-05-08 00:22 33.67272 -84.59833 6447 ft 245 kts 280°
2026-05-08 00:22 33.67612 -84.61843 7159 ft 246 kts 280°
2026-05-08 00:22 33.67950 -84.63853 7906 ft 245 kts 280°
2026-05-08 00:22 33.68289 -84.65868 8608 ft 246 kts 280°
2026-05-08 00:23 33.68630 -84.67884 9329 ft 246 kts 280°
2026-05-08 00:23 33.68972 -84.69902 10025 ft 247 kts 280°
2026-05-08 00:23 33.69316 -84.71946 10479 ft 257 kts 280°
2026-05-08 00:23 33.69685 -84.74149 10636 ft 279 kts 280°
2026-05-08 00:24 33.70039 -84.76530 10793 ft 300 kts 275°
2026-05-08 00:24 33.70131 -84.79122 11066 ft 318 kts 270°
2026-05-08 00:24 33.70105 -84.81805 11752 ft 323 kts 270°
2026-05-08 00:24 33.70060 -84.84514 12654 ft 324 kts 270°
2026-05-08 00:25 33.70023 -84.87184 13616 ft 323 kts 270°
2026-05-08 00:25 33.69995 -84.89880 14495 ft 324 kts 270°
2026-05-08 00:25 33.69976 -84.92599 15234 ft 328 kts 270°
2026-05-08 00:25 33.69962 -84.95354 15985 ft 331 kts 270°
2026-05-08 00:26 33.69951 -84.98131 16736 ft 334 kts 270°
2026-05-08 00:26 33.69941 -85.00927 17523 ft 336 kts 270°
2026-05-08 00:26 33.69932 -85.03742 18268 ft 338 kts 270°
2026-05-08 00:26 33.69922 -85.06588 18866 ft 342 kts 270°
2026-05-08 00:27 33.69913 -85.09455 19486 ft 345 kts 270°
2026-05-08 00:27 33.69902 -85.12346 20095 ft 348 kts 270°
2026-05-08 00:27 33.69891 -85.15234 20699 ft 351 kts 270°
2026-05-08 00:27 33.69880 -85.18181 21320 ft 353 kts 270°
2026-05-08 00:28 33.69866 -85.21141 21922 ft 356 kts 270°
2026-05-08 00:28 33.69849 -85.24121 22491 ft 359 kts 270°
2026-05-08 00:28 33.69820 -85.27133 23047 ft 362 kts 269°
2026-05-08 00:28 33.69786 -85.30177 23564 ft 365 kts 269°
2026-05-08 00:29 33.69750 -85.33204 24005 ft 368 kts 269°
2026-05-08 00:29 33.69713 -85.36291 24478 ft 370 kts 269°
2026-05-08 00:29 33.69676 -85.39391 24946 ft 372 kts 269°
2026-05-08 00:29 33.69639 -85.42505 25384 ft 374 kts 269°
2026-05-08 00:30 33.69601 -85.45633 25802 ft 377 kts 269°
2026-05-08 00:30 33.69562 -85.48789 26229 ft 379 kts 269°
2026-05-08 00:30 33.69523 -85.51963 26654 ft 381 kts 269°
2026-05-08 00:30 33.69482 -85.55164 27081 ft 383 kts 269°
2026-05-08 00:31 33.69441 -85.58336 27494 ft 385 kts 269°
2026-05-08 00:31 33.69398 -85.61567 27886 ft 388 kts 269°
2026-05-08 00:31 33.69354 -85.64830 28277 ft 391 kts 269°
2026-05-08 00:31 33.69309 -85.68074 28618 ft 393 kts 269°
2026-05-08 00:32 33.69263 -85.71374 28987 ft 395 kts 269°
2026-05-08 00:32 33.69215 -85.74689 29307 ft 397 kts 268°
2026-05-08 00:32 33.69167 -85.78023 29655 ft 399 kts 268°
2026-05-08 00:32 33.69117 -85.81354 30100 ft 399 kts 268°
2026-05-08 00:33 33.69067 -85.84679 30501 ft 397 kts 268°
2026-05-08 00:33 33.69016 -85.87989 30896 ft 396 kts 268°
2026-05-08 00:33 33.68965 -85.91299 31276 ft 395 kts 268°
2026-05-08 00:33 33.68913 -85.94592 31630 ft 394 kts 268°
2026-05-08 00:34 33.68861 -85.97839 31960 ft 393 kts 268°
2026-05-08 00:34 33.68807 -86.01120 32280 ft 393 kts 268°
2026-05-08 00:34 33.68760 -86.04406 32565 ft 393 kts 270°
2026-05-08 00:34 33.68878 -86.07692 32864 ft 393 kts 273°
2026-05-08 00:35 33.69128 -86.10964 33149 ft 394 kts 274°
2026-05-08 00:35 33.69421 -86.14231 33433 ft 394 kts 274°
2026-05-08 00:35 33.69719 -86.17501 33703 ft 393 kts 274°
2026-05-08 00:35 33.70007 -86.20772 33944 ft 393 kts 274°
2026-05-08 00:36 33.70281 -86.24034 34174 ft 393 kts 274°
2026-05-08 00:36 33.70547 -86.27300 34421 ft 392 kts 274°
2026-05-08 00:36 33.70804 -86.30556 34672 ft 390 kts 273°
2026-05-08 00:36 33.71057 -86.33800 34904 ft 389 kts 273°
2026-05-08 00:37 33.71221 -86.35924 35059 ft 389 kts 273°
2026-05-08 00:37 33.71462 -86.39073 35401 ft 384 kts 273°
2026-05-08 00:37 33.71703 -86.42220 35950 ft 375 kts 273°
2026-05-08 00:38 33.72171 -86.48400 36031 ft 371 kts 273°
2026-05-08 00:38 33.72633 -86.54533 36030 ft 366 kts 273°
2026-05-08 00:39 33.73089 -86.60635 36054 ft 366 kts 273°
2026-05-08 00:39 33.73541 -86.66732 36045 ft 367 kts 273°
2026-05-08 00:40 33.73993 -86.72854 36044 ft 368 kts 273°
2026-05-08 00:40 33.74441 -86.78959 36042 ft 368 kts 273°
2026-05-08 00:41 33.74888 -86.85095 36043 ft 369 kts 273°
2026-05-08 00:41 33.75332 -86.91242 36032 ft 369 kts 273°
2026-05-08 00:42 33.75774 -86.97390 36026 ft 369 kts 273°
2026-05-08 00:42 33.76213 -87.03537 36021 ft 369 kts 273°
2026-05-08 00:43 33.76648 -87.09686 36031 ft 369 kts 273°
2026-05-08 00:43 33.77081 -87.15835 36037 ft 369 kts 273°
2026-05-08 00:44 33.77508 -87.21950 36045 ft 369 kts 273°
2026-05-08 00:44 33.77934 -87.28092 36054 ft 369 kts 272°
2026-05-08 00:45 33.78357 -87.34241 36058 ft 369 kts 272°
2026-05-08 00:45 33.78778 -87.40390 36051 ft 369 kts 272°
2026-05-08 00:46 33.79195 -87.46537 36046 ft 368 kts 272°
2026-05-08 00:46 33.80110 -87.52621 36036 ft 371 kts 280°
2026-05-08 00:47 33.81412 -87.58600 36038 ft 372 kts 281°
2026-05-08 00:47 33.82718 -87.64618 36022 ft 372 kts 280°
2026-05-08 00:48 33.83996 -87.70657 36012 ft 372 kts 280°
2026-05-08 00:48 33.85255 -87.76693 36007 ft 372 kts 280°
2026-05-08 00:49 33.86504 -87.82731 36011 ft 372 kts 280°
2026-05-08 00:49 33.87750 -87.88771 36012 ft 372 kts 280°
2026-05-08 00:50 33.88993 -87.94820 36014 ft 372 kts 280°
2026-05-08 00:50 33.90226 -88.00832 36015 ft 372 kts 280°
2026-05-08 00:51 33.91464 -88.06889 36016 ft 372 kts 279°
2026-05-08 00:51 33.92698 -88.12937 36016 ft 372 kts 279°
2026-05-08 00:52 33.93931 -88.18999 36019 ft 372 kts 279°
2026-05-08 00:52 33.95153 -88.25019 36022 ft 372 kts 279°
2026-05-08 00:53 33.96380 -88.31085 36028 ft 372 kts 279°
2026-05-08 00:53 33.97601 -88.37140 36024 ft 372 kts 279°
2026-05-08 00:54 33.98821 -88.43203 36029 ft 372 kts 279°
2026-05-08 00:54 34.00037 -88.49262 36026 ft 372 kts 279°
2026-05-08 00:55 34.01253 -88.55336 36035 ft 372 kts 279°
2026-05-08 00:55 34.02464 -88.61406 36044 ft 372 kts 279°
2026-05-08 00:56 34.03666 -88.67446 36051 ft 373 kts 279°
2026-05-08 00:56 34.04875 -88.73534 36053 ft 373 kts 279°
2026-05-08 00:57 34.06083 -88.79642 36053 ft 373 kts 279°
2026-05-08 00:57 34.07285 -88.85732 36050 ft 373 kts 279°
2026-05-08 00:58 34.08486 -88.91830 36058 ft 373 kts 279°
2026-05-08 00:58 34.09683 -88.97930 36059 ft 374 kts 279°
2026-05-08 00:59 34.10870 -89.03995 36056 ft 373 kts 279°
2026-05-08 00:59 34.12064 -89.10110 36052 ft 373 kts 278°
2026-05-08 01:00 34.13251 -89.16209 36054 ft 372 kts 278°
2026-05-08 01:00 34.14423 -89.22247 36050 ft 372 kts 278°
2026-05-08 01:01 34.15599 -89.28320 36057 ft 371 kts 278°
2026-05-08 01:01 34.16773 -89.34407 36065 ft 371 kts 278°
2026-05-08 01:02 34.17940 -89.40470 36066 ft 370 kts 278°
2026-05-08 01:02 34.19102 -89.46523 36071 ft 370 kts 278°
2026-05-08 01:03 34.20260 -89.52579 36074 ft 370 kts 278°
2026-05-08 01:03 34.21408 -89.58590 36080 ft 369 kts 278°
2026-05-08 01:04 34.22561 -89.64651 36072 ft 370 kts 278°
2026-05-08 01:04 34.23712 -89.70720 36070 ft 369 kts 278°
2026-05-08 01:05 34.24857 -89.76771 36062 ft 369 kts 278°
2026-05-08 01:05 34.26000 -89.82830 36065 ft 370 kts 278°
2026-05-08 01:06 34.27134 -89.88860 36063 ft 370 kts 278°
2026-05-08 01:06 34.28276 -89.94949 36067 ft 370 kts 277°
2026-05-08 01:07 34.29413 -90.01029 36062 ft 371 kts 277°
2026-05-08 01:07 34.30546 -90.07103 36061 ft 371 kts 277°
2026-05-08 01:08 34.31670 -90.13149 36058 ft 370 kts 277°
2026-05-08 01:08 34.32797 -90.19246 36058 ft 370 kts 277°
2026-05-08 01:09 34.33918 -90.25329 36068 ft 370 kts 277°
2026-05-08 01:09 34.35026 -90.31355 36074 ft 369 kts 277°
2026-05-08 01:10 34.36136 -90.37415 36070 ft 368 kts 277°
2026-05-08 01:10 34.37243 -90.43475 36076 ft 368 kts 277°
2026-05-08 01:11 34.38344 -90.49518 36069 ft 367 kts 277°
2026-05-08 01:11 34.39431 -90.55508 36074 ft 366 kts 277°
2026-05-08 01:12 34.40523 -90.61537 36074 ft 366 kts 277°
2026-05-08 01:12 34.41612 -90.67569 36070 ft 366 kts 277°
2026-05-08 01:13 34.42696 -90.73596 36068 ft 366 kts 277°
2026-05-08 01:13 34.43778 -90.79625 36070 ft 365 kts 277°
2026-05-08 01:14 34.44849 -90.85608 36063 ft 365 kts 276°
2026-05-08 01:14 34.45923 -90.91632 36069 ft 365 kts 276°
2026-05-08 01:15 34.46996 -90.97672 36064 ft 365 kts 276°
2026-05-08 01:15 34.48062 -91.03694 36065 ft 365 kts 276°
2026-05-08 01:16 34.49118 -91.09674 36070 ft 365 kts 276°
2026-05-08 01:16 34.50177 -91.15692 36069 ft 365 kts 276°
2026-05-08 01:17 34.51233 -91.21715 36076 ft 365 kts 276°
2026-05-08 01:17 34.52288 -91.27744 36077 ft 364 kts 276°
2026-05-08 01:18 34.53336 -91.33753 36076 ft 364 kts 276°
2026-05-08 01:18 34.54379 -91.39727 36072 ft 364 kts 276°
2026-05-08 01:19 34.55428 -91.45734 36076 ft 364 kts 276°
2026-05-08 01:19 34.56473 -91.51739 36072 ft 364 kts 276°
2026-05-08 01:20 34.57514 -91.57742 36078 ft 363 kts 276°
2026-05-08 01:20 34.58547 -91.63724 36068 ft 364 kts 276°
2026-05-08 01:21 34.59584 -91.69743 36076 ft 364 kts 276°
2026-05-08 01:21 34.60618 -91.75760 36071 ft 364 kts 276°
2026-05-08 01:22 34.61650 -91.81783 36078 ft 363 kts 276°
2026-05-08 01:22 34.62675 -91.87787 36066 ft 363 kts 276°
2026-05-08 01:23 34.63692 -91.93765 36062 ft 363 kts 276°
2026-05-08 01:23 34.64539 -91.98760 36061 ft 363 kts 276°
2026-05-08 01:24 34.65555 -92.04760 36055 ft 363 kts 276°
2026-05-08 01:24 34.66570 -92.10776 36057 ft 363 kts 276°
2026-05-08 01:25 34.67744 -92.17759 36059 ft 362 kts 275°
2026-05-08 01:25 34.68519 -92.22794 36053 ft 361 kts 274°
2026-05-08 01:26 34.69374 -92.28781 36059 ft 361 kts 274°
2026-05-08 01:26 34.70233 -92.34809 36055 ft 361 kts 274°
2026-05-08 01:27 34.71089 -92.40792 36054 ft 361 kts 274°
2026-05-08 01:27 34.71952 -92.46821 36056 ft 361 kts 274°
2026-05-08 01:28 34.72811 -92.52830 36056 ft 361 kts 274°
2026-05-08 01:28 34.73669 -92.58863 36049 ft 361 kts 274°
2026-05-08 01:29 34.74524 -92.64883 36052 ft 361 kts 274°
2026-05-08 01:29 34.75371 -92.70866 36055 ft 361 kts 274°
2026-05-08 01:30 34.76221 -92.76898 36049 ft 361 kts 274°
2026-05-08 01:30 34.77067 -92.82925 36042 ft 361 kts 274°
2026-05-08 01:31 34.77904 -92.88910 36046 ft 361 kts 274°
2026-05-08 01:31 34.78745 -92.94943 36047 ft 361 kts 274°
2026-05-08 01:32 34.79582 -93.00971 36045 ft 361 kts 274°
2026-05-08 01:32 34.80414 -93.06989 36043 ft 361 kts 274°
2026-05-08 01:33 34.81245 -93.13019 36038 ft 362 kts 274°
2026-05-08 01:33 34.82075 -93.19066 36034 ft 362 kts 274°
2026-05-08 01:34 34.82901 -93.25105 36027 ft 361 kts 274°
2026-05-08 01:34 34.83720 -93.31110 36030 ft 361 kts 273°
2026-05-08 01:35 34.84537 -93.37131 36027 ft 360 kts 273°
2026-05-08 01:35 34.85349 -93.43147 36024 ft 360 kts 273°
2026-05-08 01:36 34.86159 -93.49154 36030 ft 359 kts 273°
2026-05-08 01:36 34.86960 -93.55127 36032 ft 359 kts 273°
2026-05-08 01:37 34.87763 -93.61133 36034 ft 360 kts 273°
2026-05-08 01:37 34.88566 -93.67172 36030 ft 360 kts 273°
2026-05-08 01:38 34.89366 -93.73204 36029 ft 360 kts 273°
2026-05-08 01:38 34.90162 -93.79234 36028 ft 361 kts 273°
2026-05-08 01:39 34.90951 -93.85228 36036 ft 361 kts 273°
2026-05-08 01:39 34.91742 -93.91270 36031 ft 361 kts 273°
2026-05-08 01:40 34.92532 -93.97322 36031 ft 361 kts 273°
2026-05-08 01:40 34.93320 -94.03373 36036 ft 362 kts 273°
2026-05-08 01:41 34.94105 -94.09436 36037 ft 362 kts 273°
2026-05-08 01:41 34.94883 -94.15472 36035 ft 362 kts 273°
2026-05-08 01:42 34.95662 -94.21541 36035 ft 362 kts 273°
2026-05-08 01:42 34.96439 -94.27609 36037 ft 362 kts 272°
2026-05-08 01:43 34.97212 -94.33675 36029 ft 362 kts 272°
2026-05-08 01:43 34.97977 -94.39705 36044 ft 361 kts 272°
2026-05-08 01:44 34.98744 -94.45781 36054 ft 362 kts 272°
2026-05-08 01:44 34.99510 -94.51866 36054 ft 363 kts 272°
2026-05-08 01:45 35.00274 -94.57962 36057 ft 364 kts 272°
2026-05-08 01:45 35.01037 -94.64071 36055 ft 364 kts 272°
2026-05-08 01:46 35.01810 -94.70189 36057 ft 365 kts 273°
2026-05-08 01:46 35.02643 -94.76304 36053 ft 366 kts 273°
2026-05-08 01:47 35.03483 -94.82438 36040 ft 366 kts 273°
2026-05-08 01:47 35.04315 -94.88568 36047 ft 366 kts 273°
2026-05-08 01:48 35.05548 -94.97740 36027 ft 366 kts 273°
2026-05-08 01:48 35.06368 -95.03880 36033 ft 366 kts 273°
2026-05-08 01:49 35.07188 -95.10031 36034 ft 366 kts 273°
2026-05-08 01:49 35.07996 -95.16133 36029 ft 366 kts 273°
2026-05-08 01:50 35.08809 -95.22291 36029 ft 366 kts 273°
2026-05-08 01:50 35.09618 -95.28440 36031 ft 366 kts 273°
2026-05-08 01:51 35.10418 -95.34551 36031 ft 366 kts 273°
2026-05-08 01:51 35.11222 -95.40709 36032 ft 367 kts 273°
2026-05-08 01:52 35.12023 -95.46871 36035 ft 367 kts 272°
2026-05-08 01:52 35.12773 -95.53004 36036 ft 367 kts 272°
2026-05-08 01:53 35.13506 -95.59191 36035 ft 368 kts 272°
2026-05-08 01:53 35.14241 -95.65382 36027 ft 368 kts 272°
2026-05-08 01:54 35.14977 -95.71585 36030 ft 369 kts 272°
2026-05-08 01:54 35.15706 -95.77752 36033 ft 369 kts 272°
2026-05-08 01:55 35.16440 -95.83981 36035 ft 369 kts 272°
2026-05-08 01:55 35.17170 -95.90205 36031 ft 370 kts 272°
2026-05-08 01:56 35.17896 -95.96432 36031 ft 370 kts 272°
2026-05-08 01:56 35.18617 -96.02631 36032 ft 371 kts 272°
2026-05-08 01:57 35.19340 -96.08890 36027 ft 371 kts 272°
2026-05-08 01:57 35.20059 -96.15127 36027 ft 372 kts 272°
2026-05-08 01:58 35.20779 -96.21409 36024 ft 373 kts 272°
2026-05-08 01:58 35.21496 -96.27700 36024 ft 374 kts 272°
2026-05-08 01:59 35.22211 -96.33997 36021 ft 374 kts 272°
2026-05-08 01:59 35.22921 -96.40286 36021 ft 375 kts 272°
2026-05-08 02:00 35.23633 -96.46617 36023 ft 376 kts 272°
2026-05-08 02:00 35.24343 -96.52955 36022 ft 376 kts 272°
2026-05-08 02:01 35.25051 -96.59321 36020 ft 377 kts 271°
2026-05-08 02:01 35.25751 -96.65636 36023 ft 377 kts 271°
2026-05-08 02:02 35.26455 -96.72015 36015 ft 378 kts 271°
2026-05-08 02:02 35.27155 -96.78388 36017 ft 377 kts 271°
2026-05-08 02:03 35.27848 -96.84732 36031 ft 378 kts 271°
2026-05-08 02:03 35.28542 -96.91118 36031 ft 378 kts 271°
2026-05-08 02:04 35.29230 -96.97484 36026 ft 379 kts 271°
2026-05-08 02:04 35.29919 -97.03881 36024 ft 379 kts 271°
2026-05-08 02:05 35.30605 -97.10289 36025 ft 380 kts 271°
2026-05-08 02:05 35.31288 -97.16709 36023 ft 380 kts 271°
2026-05-08 02:06 35.31967 -97.23114 36013 ft 381 kts 271°
2026-05-08 02:06 35.32647 -97.29569 36014 ft 382 kts 271°
2026-05-08 02:07 35.33321 -97.35994 36011 ft 383 kts 271°
2026-05-08 02:07 35.33998 -97.42481 36012 ft 384 kts 271°
2026-05-08 02:08 35.34667 -97.48933 36000 ft 384 kts 271°
2026-05-08 02:08 35.35339 -97.55433 36010 ft 385 kts 271°
2026-05-08 02:09 35.35869 -97.61954 36025 ft 382 kts 267°
2026-05-08 02:09 35.35808 -97.68458 36022 ft 381 kts 265°
2026-05-08 02:10 35.35701 -97.74917 36008 ft 381 kts 265°
2026-05-08 02:10 35.35596 -97.81411 36009 ft 382 kts 265°
2026-05-08 02:11 35.35491 -97.87931 36007 ft 382 kts 265°
2026-05-08 02:11 35.35402 -97.93356 36003 ft 383 kts 265°
2026-05-08 02:12 35.35293 -97.99846 36007 ft 383 kts 265°
2026-05-08 02:12 35.35179 -98.06389 36003 ft 384 kts 265°
2026-05-08 02:13 35.35042 -98.14006 36003 ft 385 kts 264°
2026-05-08 02:13 35.34940 -98.19496 36002 ft 385 kts 264°
2026-05-08 02:14 35.34817 -98.26025 36005 ft 386 kts 264°
2026-05-08 02:14 35.34688 -98.32612 36001 ft 387 kts 264°
2026-05-08 02:15 35.34556 -98.39194 35980 ft 388 kts 264°
2026-05-08 02:15 35.34419 -98.45808 35999 ft 388 kts 264°
2026-05-08 02:16 35.34279 -98.52440 35991 ft 389 kts 264°
2026-05-08 02:16 35.34136 -98.59037 36005 ft 390 kts 264°
2026-05-08 02:17 35.33988 -98.65686 36000 ft 391 kts 264°
2026-05-08 02:17 35.33836 -98.72351 35996 ft 391 kts 264°
2026-05-08 02:18 35.33682 -98.78988 35998 ft 392 kts 264°
2026-05-08 02:18 35.33522 -98.85671 35992 ft 393 kts 264°
2026-05-08 02:19 35.33360 -98.92375 35991 ft 393 kts 264°
2026-05-08 02:19 35.33197 -98.99038 36003 ft 394 kts 264°
2026-05-08 02:20 35.33030 -99.05767 36006 ft 394 kts 264°
2026-05-08 02:20 35.32859 -99.12460 36010 ft 395 kts 264°
2026-05-08 02:21 35.32684 -99.19199 36008 ft 396 kts 264°
2026-05-08 02:21 35.32505 -99.25956 36012 ft 396 kts 264°
2026-05-08 02:22 35.32322 -99.32667 36001 ft 397 kts 264°
2026-05-08 02:22 35.32135 -99.39452 35976 ft 398 kts 264°
2026-05-08 02:23 35.31943 -99.46245 35994 ft 398 kts 264°
2026-05-08 02:23 35.31748 -99.52998 35987 ft 399 kts 264°
2026-05-08 02:24 35.31549 -99.59799 35978 ft 399 kts 264°
2026-05-08 02:24 35.31347 -99.66563 35979 ft 399 kts 264°
2026-05-08 02:25 35.31139 -99.73371 35981 ft 399 kts 264°
2026-05-08 02:25 35.30927 -99.80182 35966 ft 400 kts 264°
2026-05-08 02:26 35.30712 -99.86997 35979 ft 400 kts 264°
2026-05-08 02:26 35.30494 -99.93771 35977 ft 400 kts 264°
2026-05-08 02:27 35.30271 -100.00592 35970 ft 401 kts 264°
2026-05-08 02:27 35.30044 -100.07419 35968 ft 401 kts 264°
2026-05-08 02:28 35.29814 -100.14214 35971 ft 401 kts 264°
2026-05-08 02:28 35.29578 -100.21059 35968 ft 402 kts 264°
2026-05-08 02:29 35.29339 -100.27876 35969 ft 403 kts 264°
2026-05-08 02:29 35.29095 -100.34741 35968 ft 403 kts 264°
2026-05-08 02:30 35.28847 -100.41609 35968 ft 404 kts 264°
2026-05-08 02:30 35.28596 -100.48462 35969 ft 405 kts 264°
2026-05-08 02:31 35.28339 -100.55354 35963 ft 406 kts 264°
2026-05-08 02:31 35.28078 -100.62270 35966 ft 406 kts 264°
2026-05-08 02:32 35.27812 -100.69186 35973 ft 407 kts 264°
2026-05-08 02:32 35.27544 -100.76080 35964 ft 408 kts 264°
2026-05-08 02:33 35.27269 -100.83048 35968 ft 408 kts 264°
2026-05-08 02:33 35.26991 -100.89954 35969 ft 409 kts 264°
2026-05-08 02:34 35.26707 -100.96935 35966 ft 410 kts 264°
2026-05-08 02:34 35.26420 -101.03891 35965 ft 412 kts 264°
2026-05-08 02:35 35.26127 -101.10906 35964 ft 413 kts 264°
2026-05-08 02:35 35.25828 -101.17937 35961 ft 414 kts 264°
2026-05-08 02:36 35.25526 -101.24986 35963 ft 415 kts 264°
2026-05-08 02:36 35.25217 -101.32062 35964 ft 417 kts 264°
2026-05-08 02:37 35.24906 -101.39107 35985 ft 418 kts 264°
2026-05-08 02:37 35.24588 -101.46224 35992 ft 419 kts 264°
2026-05-08 02:38 35.24266 -101.53338 36005 ft 419 kts 264°
2026-05-08 02:38 35.23938 -101.60486 36017 ft 420 kts 264°
2026-05-08 02:39 35.23607 -101.67626 36022 ft 421 kts 264°
2026-05-08 02:39 35.23335 -101.74748 36020 ft 422 kts 265°
2026-05-08 02:40 35.23179 -101.81944 36022 ft 423 kts 265°
2026-05-08 02:40 35.23026 -101.89173 36004 ft 424 kts 265°
2026-05-08 02:41 35.22857 -101.96362 35995 ft 425 kts 265°
2026-05-08 02:41 35.22675 -102.03595 35982 ft 426 kts 265°
2026-05-08 02:42 35.22485 -102.10877 35965 ft 428 kts 265°
2026-05-08 02:42 35.22290 -102.18121 35964 ft 429 kts 265°
2026-05-08 02:43 35.22091 -102.25426 35961 ft 430 kts 265°
2026-05-08 02:43 35.21887 -102.32753 35961 ft 431 kts 265°
2026-05-08 02:44 35.21677 -102.40097 35964 ft 433 kts 265°
2026-05-08 02:44 35.21462 -102.47480 35964 ft 434 kts 266°
2026-05-08 02:45 35.21243 -102.54831 35965 ft 435 kts 266°
2026-05-08 02:45 35.21020 -102.62197 35964 ft 437 kts 266°
2026-05-08 02:46 35.20790 -102.69639 35968 ft 438 kts 266°
2026-05-08 02:46 35.20556 -102.77043 35963 ft 439 kts 266°
2026-05-08 02:47 35.20315 -102.84527 35960 ft 441 kts 266°
2026-05-08 02:47 35.20069 -102.92036 35954 ft 442 kts 266°
2026-05-08 02:48 35.19817 -102.99573 35956 ft 444 kts 266°
2026-05-08 02:48 35.19560 -103.07127 35949 ft 445 kts 266°
2026-05-08 02:49 35.19298 -103.14674 35942 ft 446 kts 266°
2026-05-08 02:49 35.19030 -103.22272 35947 ft 448 kts 266°
2026-05-08 02:50 35.18758 -103.29857 35953 ft 449 kts 266°
2026-05-08 02:50 35.18479 -103.37490 35968 ft 450 kts 266°
2026-05-08 02:51 35.18195 -103.45131 35977 ft 451 kts 266°
2026-05-08 02:51 35.17905 -103.52806 35983 ft 452 kts 266°
2026-05-08 02:52 35.17609 -103.60498 35983 ft 452 kts 266°
2026-05-08 02:52 35.17311 -103.68146 35981 ft 453 kts 266°
2026-05-08 02:53 35.17005 -103.75855 35969 ft 454 kts 266°
2026-05-08 02:53 35.16693 -103.83565 35951 ft 455 kts 266°
2026-05-08 02:54 35.16376 -103.91306 35936 ft 455 kts 266°
2026-05-08 02:54 35.16056 -103.98999 35916 ft 456 kts 267°
2026-05-08 02:55 35.15562 -104.10644 35900 ft 458 kts 267°
2026-05-08 02:56 35.15226 -104.18426 35897 ft 458 kts 267°
2026-05-08 02:56 35.14886 -104.26173 35895 ft 459 kts 267°
2026-05-08 02:57 35.14539 -104.33972 35908 ft 460 kts 267°
2026-05-08 02:57 35.14186 -104.41808 35934 ft 461 kts 267°
2026-05-08 02:58 35.13829 -104.49601 35952 ft 462 kts 267°
2026-05-08 02:58 35.13463 -104.57471 35965 ft 463 kts 267°
2026-05-08 02:59 35.13093 -104.65336 35976 ft 463 kts 267°
2026-05-08 02:59 35.12728 -104.72994 35969 ft 464 kts 267°
2026-05-08 03:00 35.12409 -104.79589 35964 ft 464 kts 267°
2026-05-08 03:00 35.12026 -104.87423 35951 ft 465 kts 267°
2026-05-08 03:01 35.11572 -104.96601 35933 ft 465 kts 267°
2026-05-08 03:01 35.11240 -105.03211 35921 ft 466 kts 267°
2026-05-08 03:02 35.10927 -105.11082 35929 ft 466 kts 268°
2026-05-08 03:02 35.10698 -105.18999 35933 ft 467 kts 268°
2026-05-08 03:03 35.10461 -105.26925 35949 ft 467 kts 268°
2026-05-08 03:03 35.10204 -105.34874 35964 ft 468 kts 268°
2026-05-08 03:04 35.09934 -105.42833 35970 ft 468 kts 268°
2026-05-08 03:04 35.09660 -105.50750 35978 ft 469 kts 268°
2026-05-08 03:05 35.09380 -105.58716 35990 ft 470 kts 268°
2026-05-08 03:05 35.09094 -105.66699 35997 ft 471 kts 268°
2026-05-08 03:06 35.08802 -105.74704 35996 ft 471 kts 268°
2026-05-08 03:06 35.08504 -105.82721 35996 ft 472 kts 268°
2026-05-08 03:07 35.08204 -105.90679 35994 ft 473 kts 268°
2026-05-08 03:07 35.07895 -105.98700 35990 ft 473 kts 268°
2026-05-08 03:08 35.07581 -106.06750 35983 ft 474 kts 268°
2026-05-08 03:08 35.07261 -106.14794 35981 ft 474 kts 268°
2026-05-08 03:09 35.06937 -106.22796 35991 ft 475 kts 268°
2026-05-08 03:09 35.06605 -106.30870 36012 ft 476 kts 268°
2026-05-08 03:10 35.06267 -106.38971 36039 ft 477 kts 268°
2026-05-08 03:10 35.05924 -106.47063 36072 ft 478 kts 268°
2026-05-08 03:11 35.05577 -106.55132 36080 ft 479 kts 268°
2026-05-08 03:11 35.05221 -106.63261 36086 ft 480 kts 268°
2026-05-08 03:12 35.04860 -106.71401 36083 ft 480 kts 268°
2026-05-08 03:12 35.04493 -106.79562 36086 ft 481 kts 268°
2026-05-08 03:13 35.04194 -106.87686 36073 ft 481 kts 270°
2026-05-08 03:13 35.04014 -106.95877 36042 ft 482 kts 270°
2026-05-08 03:14 35.03837 -107.04010 36000 ft 482 kts 270°
2026-05-08 03:14 35.03635 -107.12202 35967 ft 483 kts 270°
2026-05-08 03:15 35.03417 -107.20423 35932 ft 483 kts 270°
2026-05-08 03:15 35.03193 -107.28574 35934 ft 484 kts 270°
2026-05-08 03:16 35.02963 -107.36795 35942 ft 485 kts 270°
2026-05-08 03:16 35.02728 -107.45025 35945 ft 485 kts 270°
2026-05-08 03:17 35.02486 -107.53259 35972 ft 486 kts 270°
2026-05-08 03:17 35.02239 -107.61507 36022 ft 486 kts 270°
2026-05-08 03:18 35.01988 -107.69721 36069 ft 487 kts 270°
2026-05-08 03:18 35.01729 -107.77977 36103 ft 487 kts 270°
2026-05-08 03:19 35.01464 -107.86263 36122 ft 487 kts 270°
2026-05-08 03:19 35.01194 -107.94532 36118 ft 488 kts 270°
2026-05-08 03:20 35.00919 -108.02757 36094 ft 488 kts 270°
2026-05-08 03:20 35.00638 -108.11043 36060 ft 489 kts 270°
2026-05-08 03:21 35.00350 -108.19318 36009 ft 489 kts 270°
2026-05-08 03:21 35.00057 -108.27615 35955 ft 489 kts 270°
2026-05-08 03:22 34.99757 -108.35912 35945 ft 489 kts 270°
2026-05-08 03:22 34.99453 -108.44204 35943 ft 489 kts 270°
2026-05-08 03:23 34.99144 -108.52448 35952 ft 490 kts 270°
2026-05-08 03:23 34.98828 -108.60745 36006 ft 490 kts 270°
2026-05-08 03:24 34.98505 -108.69057 36059 ft 490 kts 270°
2026-05-08 03:24 34.98177 -108.77373 36114 ft 491 kts 270°
2026-05-08 03:25 34.97842 -108.85705 36149 ft 491 kts 270°
2026-05-08 03:25 34.97502 -108.94030 36173 ft 492 kts 270°
2026-05-08 03:26 34.97159 -109.02312 36145 ft 492 kts 270°
2026-05-08 03:26 34.96808 -109.10644 36103 ft 492 kts 270°
2026-05-08 03:27 34.96422 -109.18990 36049 ft 493 kts 269°
2026-05-08 03:27 34.95870 -109.27337 36004 ft 494 kts 268°
2026-05-08 03:28 34.95277 -109.35715 35957 ft 494 kts 268°
2026-05-08 03:28 34.94701 -109.44059 35954 ft 495 kts 268°
2026-05-08 03:29 34.94135 -109.52379 35952 ft 495 kts 268°
2026-05-08 03:29 34.93563 -109.60748 35959 ft 495 kts 268°
2026-05-08 03:30 34.92692 -109.73312 35949 ft 496 kts 268°
2026-05-08 03:31 34.91506 -109.90092 35953 ft 497 kts 268°
2026-05-08 03:32 34.90606 -110.02617 35951 ft 497 kts 268°
2026-05-08 03:32 34.89996 -110.11005 35958 ft 497 kts 268°
2026-05-08 03:33 34.89380 -110.19394 35956 ft 496 kts 268°
2026-05-08 03:33 34.88759 -110.27765 35962 ft 496 kts 268°
2026-05-08 03:34 34.88133 -110.36139 35985 ft 496 kts 268°
2026-05-08 03:34 34.87500 -110.44525 36014 ft 497 kts 268°
2026-05-08 03:35 34.86866 -110.52857 36035 ft 497 kts 268°
2026-05-08 03:35 34.86217 -110.61252 36059 ft 497 kts 268°
2026-05-08 03:36 34.85563 -110.69640 36072 ft 497 kts 268°
2026-05-08 03:36 34.84909 -110.77967 36057 ft 497 kts 268°
2026-05-08 03:37 34.84244 -110.86366 36053 ft 497 kts 268°
2026-05-08 03:37 34.83579 -110.94690 36028 ft 497 kts 268°
2026-05-08 03:38 34.82905 -111.03060 36015 ft 496 kts 268°
2026-05-08 03:38 34.82224 -111.11436 36002 ft 496 kts 268°
2026-05-08 03:39 34.81538 -111.19805 36003 ft 496 kts 268°
2026-05-08 03:39 34.80851 -111.28112 36000 ft 496 kts 268°
2026-05-08 03:40 34.80150 -111.36524 36007 ft 496 kts 268°
2026-05-08 03:40 34.79453 -111.44817 36015 ft 496 kts 268°
2026-05-08 03:41 34.78744 -111.53176 36036 ft 496 kts 268°
2026-05-08 03:41 34.78030 -111.61529 36054 ft 496 kts 268°
2026-05-08 03:42 34.77312 -111.69877 36075 ft 496 kts 268°
2026-05-08 03:42 34.76585 -111.78243 36088 ft 496 kts 268°
2026-05-08 03:43 34.75857 -111.86553 36067 ft 497 kts 268°
2026-05-08 03:43 34.75120 -111.94908 36050 ft 496 kts 267°
2026-05-08 03:44 34.74377 -112.03256 36002 ft 497 kts 267°
2026-05-08 03:44 34.73715 -112.10645 35973 ft 496 kts 267°
2026-05-08 03:45 34.72962 -112.18993 36007 ft 496 kts 267°
2026-05-08 03:45 34.72204 -112.27320 36049 ft 495 kts 267°
2026-05-08 03:46 34.71443 -112.35634 36093 ft 494 kts 267°
2026-05-08 03:46 34.70683 -112.43877 36091 ft 493 kts 267°
2026-05-08 03:47 34.69880 -112.52159 36085 ft 493 kts 265°
2026-05-08 03:47 34.68940 -112.60425 36048 ft 493 kts 265°
2026-05-08 03:48 34.67975 -112.68672 35999 ft 492 kts 265°
2026-05-08 03:48 34.67024 -112.76902 35954 ft 492 kts 265°
2026-05-08 03:49 34.66083 -112.85090 35890 ft 492 kts 265°
2026-05-08 03:49 34.65134 -112.93322 35896 ft 492 kts 265°
2026-05-08 03:50 34.64179 -113.01560 35882 ft 493 kts 265°
2026-05-08 03:50 34.63215 -113.09813 35880 ft 494 kts 265°
2026-05-08 03:51 34.62243 -113.18080 35864 ft 495 kts 265°
2026-05-08 03:51 34.61266 -113.26343 35852 ft 495 kts 265°
2026-05-08 03:52 34.60281 -113.34620 35855 ft 495 kts 265°
2026-05-08 03:52 34.59296 -113.42855 35841 ft 496 kts 265°
2026-05-08 03:53 34.58299 -113.51132 35840 ft 496 kts 265°
2026-05-08 03:53 34.57294 -113.59434 35833 ft 496 kts 265°
2026-05-08 03:54 34.56283 -113.67739 35831 ft 496 kts 265°
2026-05-08 03:54 34.55276 -113.75963 35827 ft 495 kts 264°
2026-05-08 03:55 34.54258 -113.84225 35817 ft 495 kts 264°
2026-05-08 03:55 34.53235 -113.92484 35815 ft 494 kts 264°
2026-05-08 03:56 34.52212 -114.00711 35825 ft 493 kts 264°
2026-05-08 03:56 34.51089 -114.08860 35835 ft 494 kts 260°
2026-05-08 03:57 34.49375 -114.16939 35841 ft 495 kts 257°
2026-05-08 03:57 34.47537 -114.24981 35849 ft 494 kts 258°
2026-05-08 03:58 34.45770 -114.33043 35852 ft 494 kts 258°
2026-05-08 03:58 34.44047 -114.41108 35857 ft 495 kts 258°
2026-05-08 03:59 34.42333 -114.49140 35840 ft 496 kts 258°
2026-05-08 03:59 34.40596 -114.57226 35834 ft 497 kts 258°
2026-05-08 04:00 34.38844 -114.65345 35814 ft 497 kts 258°
2026-05-08 04:00 34.37089 -114.73446 35807 ft 498 kts 258°
2026-05-08 04:01 34.35337 -114.81509 35821 ft 498 kts 258°
2026-05-08 04:01 34.33572 -114.89609 35817 ft 497 kts 258°
2026-05-08 04:02 34.31805 -114.97680 35816 ft 495 kts 258°
2026-05-08 04:02 34.30038 -115.05721 35820 ft 492 kts 258°
2026-05-08 04:03 34.28283 -115.13694 35826 ft 489 kts 258°
2026-05-08 04:03 34.25665 -115.25600 35836 ft 487 kts 258°
2026-05-08 04:04 34.23990 -115.33484 35835 ft 486 kts 258°
2026-05-08 04:04 34.22310 -115.41399 35846 ft 486 kts 258°
2026-05-08 04:05 34.20618 -115.49305 35851 ft 486 kts 258°
2026-05-08 04:05 34.18915 -115.57223 35850 ft 487 kts 258°
2026-05-08 04:06 34.17207 -115.65140 35866 ft 487 kts 257°
2026-05-08 04:06 34.15756 -115.73056 35870 ft 484 kts 265°
2026-05-08 04:07 34.15095 -115.81145 35913 ft 483 kts 268°
2026-05-08 04:07 34.14787 -115.85210 35512 ft 490 kts 267°
2026-05-08 04:07 34.14427 -115.89348 34746 ft 498 kts 266°
2026-05-08 04:08 34.14026 -115.93497 33972 ft 499 kts 265°
2026-05-08 04:08 34.13609 -115.97676 33057 ft 500 kts 265°
2026-05-08 04:08 34.13195 -116.01842 32186 ft 500 kts 265°
2026-05-08 04:08 34.12788 -116.05968 31313 ft 501 kts 265°
2026-05-08 04:09 34.12378 -116.10152 30455 ft 503 kts 265°
2026-05-08 04:09 34.11966 -116.14334 29736 ft 499 kts 265°
2026-05-08 04:09 34.11556 -116.18481 29031 ft 495 kts 265°
2026-05-08 04:09 34.11150 -116.22582 28392 ft 489 kts 265°
2026-05-08 04:10 34.10746 -116.26640 27773 ft 484 kts 265°
2026-05-08 04:10 34.10345 -116.30653 27161 ft 480 kts 265°
2026-05-08 04:10 34.09930 -116.34633 26562 ft 475 kts 265°
2026-05-08 04:10 34.09506 -116.38574 25956 ft 471 kts 264°
2026-05-08 04:11 34.09081 -116.42488 25334 ft 468 kts 264°
2026-05-08 04:11 34.08665 -116.46330 24790 ft 464 kts 264°
2026-05-08 04:11 34.08253 -116.50142 24606 ft 451 kts 264°
2026-05-08 04:11 34.07852 -116.53856 24399 ft 440 kts 265°
2026-05-08 04:12 34.07460 -116.57478 24212 ft 429 kts 265°
2026-05-08 04:12 34.07088 -116.61026 23865 ft 424 kts 265°
2026-05-08 04:12 34.06756 -116.64543 23419 ft 421 kts 266°
2026-05-08 04:12 34.06447 -116.67999 22914 ft 418 kts 266°
2026-05-08 04:13 34.06133 -116.71476 22441 ft 415 kts 266°
2026-05-08 04:13 34.05819 -116.74922 22000 ft 412 kts 266°
2026-05-08 04:13 34.05502 -116.78343 21542 ft 409 kts 265°
2026-05-08 04:13 34.05184 -116.81740 21108 ft 406 kts 265°
2026-05-08 04:14 34.04868 -116.85109 20677 ft 402 kts 265°
2026-05-08 04:14 34.04552 -116.88453 20256 ft 399 kts 265°
2026-05-08 04:14 34.04186 -116.91767 19823 ft 396 kts 263°
2026-05-08 04:14 34.03745 -116.95031 19436 ft 393 kts 262°
2026-05-08 04:15 34.03307 -116.98229 19008 ft 391 kts 263°
2026-05-08 04:15 34.02877 -117.01464 18570 ft 390 kts 263°
2026-05-08 04:15 34.02463 -117.04691 18121 ft 389 kts 263°
2026-05-08 04:15 34.02078 -117.07921 17640 ft 387 kts 264°
2026-05-08 04:16 34.01707 -117.11124 17196 ft 384 kts 264°
2026-05-08 04:16 34.01336 -117.14311 16763 ft 382 kts 263°
2026-05-08 04:16 34.00964 -117.17467 16342 ft 379 kts 263°
2026-05-08 04:16 34.00590 -117.20607 15906 ft 377 kts 263°
2026-05-08 04:17 34.00216 -117.23733 15476 ft 375 kts 263°
2026-05-08 04:17 33.99844 -117.26837 15049 ft 374 kts 263°
2026-05-08 04:17 33.99475 -117.29900 14630 ft 372 kts 263°
2026-05-08 04:17 33.99108 -117.32983 14185 ft 371 kts 263°
2026-05-08 04:18 33.98748 -117.36050 13757 ft 369 kts 263°
2026-05-08 04:18 33.98389 -117.39116 13298 ft 368 kts 263°
2026-05-08 04:18 33.98031 -117.42171 12853 ft 366 kts 263°
2026-05-08 04:18 33.97674 -117.45193 12462 ft 362 kts 263°
2026-05-08 04:19 33.97357 -117.48146 12316 ft 347 kts 268°
2026-05-08 04:19 33.97613 -117.50978 11940 ft 335 kts 288°
2026-05-08 04:19 33.98295 -117.53604 11604 ft 332 kts 289°
2026-05-08 04:19 33.98964 -117.56258 11233 ft 330 kts 288°
2026-05-08 04:20 33.99612 -117.58911 10856 ft 329 kts 288°
2026-05-08 04:20 34.00244 -117.61552 10562 ft 325 kts 287°
2026-05-08 04:20 34.00855 -117.64141 10412 ft 316 kts 287°
2026-05-08 04:20 34.01446 -117.66652 10268 ft 307 kts 287°
2026-05-08 04:21 34.01828 -117.68277 10182 ft 301 kts 287°
2026-05-08 04:21 34.02181 -117.70697 10006 ft 290 kts 270°
2026-05-08 04:21 34.01865 -117.73913 9537 ft 289 kts 264°
2026-05-08 04:21 34.01688 -117.75509 9299 ft 289 kts 264°
2026-05-08 04:22 34.01434 -117.77905 8958 ft 288 kts 264°
2026-05-08 04:22 34.01192 -117.80297 8621 ft 287 kts 265°
2026-05-08 04:22 34.00957 -117.82682 8294 ft 286 kts 265°
2026-05-08 04:22 34.00725 -117.85055 7965 ft 285 kts 265°
2026-05-08 04:23 34.00493 -117.87423 7632 ft 284 kts 265°
2026-05-08 04:23 34.00261 -117.89788 7302 ft 283 kts 265°
2026-05-08 04:23 34.00029 -117.92151 6983 ft 283 kts 265°
2026-05-08 04:23 33.99799 -117.94497 6709 ft 280 kts 265°
2026-05-08 04:24 33.99573 -117.96800 6432 ft 278 kts 265°
2026-05-08 04:24 33.99344 -117.99123 6112 ft 276 kts 265°